Location: Unspecified
(0.0000°N, 0.0000°E)
Time: 21:52:31
(UTC+00:00)

Hubble Space Telescope - Pass Details

Date: 01 February 2021
Orbit: 536 x 539 km, 28.5° (Epoch: 25 February)

Event Time Altitude Azimuth Distance (km) Brightness Sun altitude
Rises 05:39:21 0° 209° (SSW) 2,674 4.2 -8.2°
Reaches altitude 10° 05:42:46 10° 180° (S) 1,781 3.7 -7.4°
Maximum altitude 05:44:38 13° 153° (SSE) 1,609 3.9 -6.9°
Drops below altitude 10° 05:46:31 10° 125° (SE) 1,779 4.9 -6.5°
Sets 05:49:54 0° 96° (E) 2,666 6.5 -5.7°
